Regional Weather Roundup
Issued by NWS

Home | Current Version | Previous Version | Graphics & Text | Print | Product List | Glossary On
Versions: 1 2 3 4 5 6 7 8 9 10 11 12 13 14 15 16 17 18 19 20 21 22 23 24 25 26 27 28 29 30 31 32 33 34 35 36 37 38 39 40 41 42 43 44 45 46 47 48 49 50
000
ASUS43 KLSX 230607
RWRMO

WEATHER SUMMARY FOR MISSOURI
NATIONAL WEATHER SERVICE SPRINGFIELD MO
100 AM CDT SAT AUG 23 2014

NOTE: "FAIR" INDICATES FEW OR NO CLOUDS BELOW 12,000 FEET WITH NO
       SIGNIFICANT WEATHER AND/OR OBSTRUCTIONS TO VISIBILITY.
       CURRENT SKY AND/OR WEATHER CONDITIONS ARE NOT AVAILABLE FOR
       CHILLICOTHE AND FARMINGTON.

MOZ001>031-035>038-043-044-053-054-230700-
...NORTHERN AND WESTERN MISSOURI...

CITY           SKY/WX    TMP DP  RH WIND       PRES   REMARKS
KANSAS CTY INT MOCLDY    81  70  69 SE7       29.92F
6HR MIN TEMP:  80; 6HR MAX TEMP:  89;

KANSAS C DTWN  FAIR      82  69  64 CALM      29.91S
6HR MIN TEMP:  81; 6HR MAX TEMP:  92;

LEE`S SUMMIT   FAIR      78  67  68 SE6       29.93F
6HR MIN TEMP:  76; 6HR MAX TEMP:  88;

ST JOSEPH      FAIR      80  76  87 SE5       29.90F
6HR MIN TEMP:  77; 6HR MAX TEMP:  84;

CHILLICOTHE      N/A     80  77  90 SE3       29.93F
6HR MIN TEMP:  78; 6HR MAX TEMP:  87;

KIRKSVILLE     FAIR      77  75  93 S3        29.96S FOG
6HR MIN TEMP:  77; 6HR MAX TEMP:  86;


$$
MOZ066>068-077>081-088>096-101>105-230700-
...SOUTHWEST MISSOURI...

CITY           SKY/WX    TMP DP  RH WIND       PRES   REMARKS
SPRINGFIELD    FAIR      79  71  76 S8        29.99S
6HR MIN TEMP:  77; 6HR MAX TEMP:  94;

JOPLIN         FAIR      82  70  66 S13       29.96F
6HR MIN TEMP:  82; 6HR MAX TEMP:  94;


$$
MOZ032>034-039>042-045>050-055>058-069>072-230700-
...CENTRAL MISSOURI...

CITY           SKY/WX    TMP DP  RH WIND       PRES   REMARKS
COLUMBIA       FAIR      79  76  90 CALM      29.95R
6HR MIN TEMP:  79; 6HR MAX TEMP:  93;

JEFFERSON CITY FAIR      79  76  90 N3        29.93R
6HR MIN TEMP:  78; 6HR MAX TEMP:  93;

ROLLA          FAIR      78  69  73 S9        29.96S
6HR MIN TEMP:  78; 6HR MAX TEMP:  89;

SEDALIA        FAIR      79  75  87 S5        29.96R
6HR MIN TEMP:  78; 6HR MAX TEMP:  90;

WHITEMAN AFB   FAIR      76  69  79 S3        29.94S
OSAGE BEACH    FAIR      79  70  73 S3        29.97R

$$
MOZ051-052-059>065-230700-
...EAST CENTRAL MISSOURI...

CITY           SKY/WX    TMP DP  RH WIND       PRES   REMARKS
ST LOUIS INTL  MOCLDY    82  78  88 CALM      29.94S HX  91
6HR MIN TEMP:  82; 6HR MAX TEMP:  91;

SPIRIT OF STL  FAIR      78  76  93 CALM      29.92S
6HR MIN TEMP:  78; 6HR MAX TEMP:  89;

ST CHARLES     FAIR      78  76  93 CALM      29.92F
6HR MIN TEMP:  78; 6HR MAX TEMP:  88;


$$
MOZ072>076-082>087-097>100-106>115-230700-
...SOUTH CENTRAL AND SOUTHEAST MISSOURI...

CITY           SKY/WX    TMP DP  RH WIND       PRES   REMARKS
CAPE GIRARDEAU FAIR      79  75  87 S3        29.96F
6HR MIN TEMP:  79; 6HR MAX TEMP:  86;

FARMINGTON     FAIR      79  73  83 CALM      30.00S
6HR MIN TEMP:  79; 6HR MAX TEMP:  90;

POPLAR BLUFF   FAIR      78  72  81 S5        29.95F
6HR MIN TEMP:  78; 6HR MAX TEMP:  87;

WEST PLAINS    FAIR      78  70  76 SW5       30.02S
6HR MIN TEMP:  78; 6HR MAX TEMP:  89;


$$


USA.gov is the U.S. government's official web portal to all federal, state and local government web resources and services.